User: anonymous   Login
Location: Key Biscayne
(25.6930°N, 80.1630°W)
Time: 02:25:30
(UTC-04:00)
Language:

CZ-2D R/B - Orbit

View from above orbital plane
View from above orbital plane
View from above satellite
View from above satellite

Ground track
Ground track

The orbit data is extracted from the following two-line orbital elements,

1 28738U 05024B   17264.60891547 +.00000415 +00000-0 +28426-4 0  9995
2 28738 097.4888 299.5571 0013131 039.2452 320.9727 15.11260820670353
Epoch (UTC): 21 September 2017 14:36:50
Eccentricity: 0.0013131
inclination: 97.4888°
perigee height: 523 km
apogee height: 541 km
right ascension of ascending node: 299.5571°
argument of perigee: 39.2452°
revolutions per day: 15.11260820
mean anomaly at epoch: 320.9727°
orbit number at epoch: 67035

The dashed part of the orbit path shows where the satellite is in the earth's shadow,  

DLR